Погода в Михайлове

Россия / Калининградская область     54˚39′00″N   22˚07′16″E
темп.,
°C
ветер,
м/с
пор.,
м/с
влажн.,
%
обл.,
%
осадки,
мм/ч
давл.,
гПа
погр.,
м
17 января, вс
вс1723:00−19˚св499334 0.0 1019143
02:00−20˚в239318 0.0 102020
05:00−21˚св23911 0.0 102020
08:00−21˚св12921 0.0 102120
11:00−18˚ссв11880 0.0 102273
14:00−15˚сз118627 0.0 1022187
17:00−19˚сз11940 0.0 102220
20:00−20˚сз00950 0.0 102320
18 января, пн
пн1823:00−20˚ююз11930 0.0 102320
02:00−20˚юз22910 0.0 102320
05:00−20˚ююз22900 0.0 102220
08:00−20˚ю23911 0.0 102220
11:00−16˚ююз249353 0.0 1022101
14:00−13˚ююз249256 0.0 1021167
17:00−15˚ююз239252 0.0 102020
20:00−16˚ю349071 0.0 102062
19 января, вт
вт1923:00−16˚ю3691100 0.0 101990
02:00−15˚ююв3690100 0.0 1018113
05:00−14˚ююв4891100 0.0 1016162
08:00−13˚ююв499097 0.0 1015233
11:00−9˚ююв5995100 0.3 1014321
14:00−8˚ююв589499 0.8 1013327
17:00−7˚ююв479598 0.4 1012250
20:00−6˚ююв489699 1.1 1012233
20 января, ср
ср2023:00−6˚ююв379599 0.1 1011182
02:00−5˚ююв499597 0.2 1011223
05:00−3˚юв51092100 0.0 1010303
08:00−4˚юв61293100 0.0 1009373
11:00−2˚ююв7139499 0.1 1008495
14:00−1˚ю6119599 0.6 1006404
17:00+1˚ю61399100 2.0 1005399
20:00+1˚ююз511100100 3.3 1005356
21 января, чт
чт2123:00+1˚ююз51099100 0.1 1005315
02:00+1˚ююз4998100 0.2 1005295
05:00+1˚ююз41097100 0.4 1005290
08:00+1˚ю499299 0.4 1005256
11:00ю5108797 0.0 1005261
14:00+1˚ю499793 0.0 1004276
17:00ю41092100 0.0 1003263
20:00ю5119090 0.0 1001271